Flag for Tanzania Weather past 2 weeks in Mwanza, Tanzania

Now
75 °F

Scattered clouds.


Feels Like: 76 °F
Forecast: 65 / 80 °F
Wind: 21 mph from Northwest

Location: Mwanza Airport


UV Index: 7 (High)

Visibility: N/A


Pressure: 29.95 "Hg

Humidity: 78%

Dew point: 68 °F

Location of MwanzaLocation

Historic Weather in Mwanza

°F

Mwanza temperature yesterday

Maximum temperature yesterday: 82 °F (at 1:00 PM)
Minimum temperature yesterday: 70 °F (at 11:00 PM)
Average temperature yesterday: 78 °F

Past Weeks' High & Low Weather Summary

 TemperatureHumidityPressure
High84 °F (Apr 10, 3:00 PM)94% (Apr 7, 1:00 AM)30.12 "Hg (Apr 7, 1:00 AM)
Low66 °F (Apr 7, 7:00 AM)40% (Apr 10, 3:00 PM)29.89 "Hg (Apr 14, 6:00 PM)
Average75 °F72%29.99 "Hg
* Reported Apr 3 4:00 PM — Apr 18 4:00 PM, Mwanza, Weather by CustomWeather, © 2014

Note: Actual official high and low records may vary slightly from our data, if they occured in-between our weather recording intervals... More about our weather records

Advertising

Historic Weather Conditions — Data for Previous 24 hours

 ConditionsComfort  
Time TempWeatherWind HumidityBarometerVisibility
4:00 PM
Apr 18
81 °FScattered clouds.12 mph51%29.95 "HgN/A
3:00 PM81 °FScattered clouds.14 mph58%29.98 "HgN/A
2:00 PM82 °FBroken clouds.12 mph51%30.01 "HgN/A
12:00 PM81 °FPartly sunny.15 mph58%30.04 "HgN/A
11:00 AM77 °FPartly sunny.14 mph65%30.07 "HgN/A
10:00 AM72 °FPartly sunny.13 mph78%30.04 "HgN/A
9:00 AM72 °FPartly sunny.12 mph78%30.04 "HgN/A
7:00 AM70 °FBroken clouds.14 mph83%30.01 "HgN/A
12:00 AM72 °FPartly cloudy.17 mph83%30.01 "HgN/A
11:00 PM
Apr 17
70 °FPassing clouds.No wind88%29.98 "HgN/A
10:00 PM72 °FPassing clouds.No wind83%29.98 "HgN/A
9:00 PM73 °FPassing clouds.No wind69%29.98 "HgN/A
8:00 PM73 °FPassing clouds.No wind78%29.92 "HgN/A
7:00 PM77 °FPassing clouds.9 mph74%29.92 "HgN/A
6:00 PM79 °FPartly sunny.12 mph65%29.92 "HgN/A
5:00 PM82 °FPassing clouds.12 mph51%29.89 "HgN/A
Weather by CustomWeather, © 2014

See weather overview